Location: Bauen
(46.9356°N, 8.5784°E)
Time: 15:17:44
(UTC+00:00)

Cosmos 2251 Rocket - Pass Details

Date: 18 February 2020
Orbit: 764 x 793 km, 74.0° (Epoch: 07 April)

Event Time Altitude Azimuth Distance (km) Brightness Sun altitude
Exits shadow 03:28:18 55° 90° (E) 926 4.1 -30.8°
Drops below altitude 10° 03:33:09 10° 30° (NNE) 2,335 6.5 -30.0°
Sets 03:35:35 0° 26° (NNE) 3,271 7.3 -29.6°
